Total_Precipitation_Accumulation
0.11 0.11 0.10 0.11 0.08 0.04 0.01 0.00 0.00 0.00 0.00 0.00 0.00 0.00 0.00 0.00 0.01 0.02 0.03 0.03 0.03 0.06 0.12 0.25 0.35 0.38 0.45 0.46 0.42 0.38 0.37 0.37 0.42 0.45 0.47 0.48 0.47 0.45 0.46 0.46 0.47 0.52 0.57 0.59 0.63 0.60 0.56 0.56 0.56
0.11 0.14 0.15 0.13 0.06 0.01 0.00 0.00 0.00 0.00 0.00 0.00 0.00 0.00 0.00 0.00 0.00 0.01 0.03 0.03 0.04 0.06 0.12 0.18 0.32 0.37 0.46 0.47 0.44 0.42 0.38 0.39 0.43 0.47 0.48 0.49 0.52 0.51 0.47 0.46 0.52 0.56 0.60 0.65 0.63 0.57 0.57 0.59 0.56
0.17 0.20 0.17 0.13 0.04 0.01 0.00 0.00 0.00 0.00 0.00 0.00 0.00 0.00 0.00 0.01 0.01 0.01 0.02 0.03 0.05 0.07 0.12 0.20 0.33 0.38 0.44 0.49 0.52 0.51 0.48 0.47 0.47 0.48 0.47 0.49 0.51 0.52 0.50 0.51 0.55 0.56 0.56 0.59 0.60 0.58 0.60 0.57 0.51
0.25 0.30 0.22 0.12 0.02 0.00 0.00 0.00 0.00 0.00 0.00 0.00 0.00 0.00 0.00 0.00 0.00 0.01 0.02 0.03 0.03 0.07 0.13 0.22 0.36 0.43 0.47 0.52 0.59 0.59 0.57 0.58 0.58 0.55 0.54 0.56 0.58 0.57 0.52 0.50 0.51 0.49 0.51 0.55 0.54 0.53 0.56 0.57 0.51
0.32 0.35 0.25 0.10 0.01 0.00 0.00 0.00 0.00 0.00 0.00 0.00 0.00 0.00 0.00 0.01 0.01 0.02 0.03 0.04 0.04 0.07 0.13 0.22 0.39 0.49 0.51 0.54 0.60 0.64 0.67 0.71 0.71 0.70 0.69 0.66 0.66 0.64 0.62 0.59 0.52 0.46 0.46 0.48 0.51 0.51 0.53 0.56 0.52
0.40 0.39 0.23 0.07 0.01 0.00 0.00 0.01 0.01 0.01 0.01 0.00 0.01 0.01 0.01 0.02 0.03 0.04 0.06 0.07 0.07 0.10 0.16 0.26 0.48 0.57 0.56 0.57 0.64 0.69 0.70 0.74 0.75 0.76 0.77 0.73 0.70 0.68 0.70 0.69 0.59 0.48 0.40 0.39 0.39 0.41 0.47 0.49 0.48
0.37 0.34 0.17 0.06 0.02 0.01 0.01 0.01 0.01 0.01 0.01 0.01 0.01 0.01 0.02 0.04 0.05 0.05 0.08 0.10 0.14 0.17 0.21 0.32 0.47 0.60 0.66 0.66 0.66 0.68 0.71 0.72 0.74 0.77 0.79 0.76 0.69 0.67 0.67 0.66 0.60 0.51 0.44 0.40 0.36 0.36 0.38 0.39 0.42
0.37 0.38 0.19 0.08 0.05 0.03 0.01 0.02 0.01 0.01 0.01 0.01 0.01 0.02 0.02 0.04 0.06 0.08 0.13 0.18 0.20 0.26 0.31 0.39 0.51 0.59 0.63 0.67 0.68 0.66 0.67 0.68 0.70 0.72 0.76 0.70 0.65 0.63 0.62 0.56 0.51 0.48 0.49 0.46 0.39 0.36 0.36 0.32 0.30
0.49 0.50 0.22 0.07 0.05 0.04 0.02 0.03 0.02 0.02 0.01 0.01 0.01 0.01 0.02 0.03 0.09 0.15 0.22 0.31 0.34 0.37 0.45 0.52 0.60 0.68 0.71 0.71 0.70 0.72 0.71 0.70 0.69 0.68 0.68 0.68 0.66 0.63 0.60 0.53 0.48 0.47 0.47 0.45 0.41 0.37 0.35 0.29 0.24
0.60 0.49 0.19 0.06 0.05 0.05 0.05 0.04 0.04 0.04 0.03 0.02 0.02 0.02 0.04 0.07 0.14 0.17 0.18 0.25 0.32 0.36 0.44 0.53 0.64 0.71 0.78 0.75 0.77 0.81 0.73 0.71 0.66 0.60 0.58 0.61 0.63 0.62 0.57 0.55 0.51 0.50 0.50 0.48 0.46 0.43 0.37 0.31 0.24
0.46 0.33 0.14 0.07 0.06 0.09 0.09 0.08 0.06 0.08 0.06 0.03 0.03 0.05 0.07 0.12 0.17 0.19 0.19 0.21 0.28 0.35 0.44 0.54 0.63 0.74 0.81 0.80 0.78 0.79 0.73 0.69 0.67 0.63 0.65 0.70 0.70 0.65 0.64 0.63 0.58 0.58 0.55 0.58 0.58 0.58 0.47 0.43 0.41
0.36 0.23 0.15 0.11 0.09 0.12 0.13 0.12 0.11 0.10 0.06 0.03 0.03 0.05 0.10 0.13 0.16 0.19 0.21 0.25 0.34 0.43 0.48 0.58 0.70 0.81 0.87 0.88 0.82 0.78 0.72 0.66 0.64 0.61 0.64 0.72 0.74 0.68 0.65 0.64 0.59 0.58 0.59 0.61 0.64 0.64 0.58 0.54 0.47
0.36 0.22 0.16 0.15 0.14 0.14 0.15 0.14 0.12 0.11 0.06 0.05 0.05 0.07 0.11 0.13 0.16 0.21 0.26 0.30 0.36 0.41 0.49 0.62 0.73 0.85 0.91 0.98 0.96 0.86 0.76 0.66 0.62 0.61 0.58 0.59 0.62 0.63 0.58 0.51 0.46 0.47 0.48 0.51 0.54 0.53 0.53 0.54 0.50
0.34 0.27 0.21 0.19 0.19 0.18 0.16 0.14 0.13 0.10 0.08 0.09 0.10 0.11 0.11 0.13 0.15 0.23 0.30 0.33 0.34 0.38 0.45 0.57 0.74 0.87 0.98 1.00 1.03 0.99 0.92 0.81 0.74 0.68 0.59 0.55 0.54 0.52 0.50 0.46 0.38 0.35 0.35 0.35 0.36 0.36 0.36 0.39 0.42
0.36 0.38 0.33 0.25 0.21 0.21 0.22 0.18 0.10 0.06 0.10 0.14 0.14 0.13 0.13 0.14 0.16 0.20 0.28 0.32 0.31 0.38 0.49 0.58 0.75 0.92 1.03 1.07 1.04 1.07 1.10 1.04 0.93 0.81 0.72 0.64 0.58 0.54 0.52 0.51 0.45 0.39 0.38 0.39 0.37 0.33 0.31 0.31 0.32
0.56 0.59 0.51 0.30 0.24 0.24 0.34 0.24 0.07 0.06 0.11 0.15 0.16 0.14 0.14 0.15 0.16 0.18 0.25 0.34 0.39 0.45 0.52 0.62 0.74 0.89 0.97 1.12 1.20 1.14 1.15 1.12 1.02 0.91 0.83 0.74 0.66 0.60 0.60 0.58 0.53 0.49 0.48 0.47 0.46 0.41 0.38 0.34 0.32
0.84 0.74 0.47 0.28 0.26 0.29 0.37 0.25 0.09 0.10 0.12 0.15 0.17 0.16 0.15 0.17 0.19 0.20 0.23 0.30 0.41 0.49 0.54 0.61 0.70 0.84 0.96 1.09 1.26 1.35 1.30 1.19 1.07 0.98 0.92 0.85 0.77 0.67 0.62 0.62 0.57 0.53 0.53 0.51 0.51 0.48 0.44 0.41 0.39
0.76 0.53 0.39 0.27 0.25 0.30 0.32 0.23 0.13 0.13 0.14 0.14 0.16 0.18 0.17 0.17 0.16 0.20 0.26 0.33 0.43 0.52 0.58 0.65 0.75 0.86 1.02 1.18 1.26 1.35 1.37 1.26 1.15 1.08 1.01 0.99 0.93 0.82 0.71 0.66 0.63 0.62 0.59 0.56 0.53 0.53 0.53 0.49 0.45
0.55 0.45 0.38 0.26 0.23 0.30 0.27 0.19 0.13 0.14 0.15 0.14 0.14 0.17 0.17 0.16 0.17 0.21 0.31 0.41 0.47 0.52 0.59 0.65 0.73 0.83 0.97 1.09 1.14 1.12 1.18 1.17 1.08 1.03 1.05 1.07 1.07 0.99 0.88 0.79 0.71 0.70 0.66 0.61 0.55 0.51 0.51 0.50 0.48
0.62 0.59 0.42 0.31 0.26 0.31 0.26 0.17 0.11 0.11 0.13 0.13 0.13 0.15 0.15 0.17 0.20 0.22 0.31 0.44 0.48 0.48 0.56 0.63 0.66 0.74 0.80 0.84 0.94 1.02 1.02 1.05 1.06 1.02 1.02 1.07 1.08 1.01 0.96 0.89 0.80 0.71 0.68 0.64 0.61 0.55 0.52 0.48 0.43
0.65 0.59 0.43 0.37 0.33 0.35 0.33 0.26 0.13 0.10 0.10 0.11 0.13 0.14 0.14 0.15 0.18 0.19 0.25 0.40 0.47 0.48 0.53 0.60 0.66 0.68 0.77 0.84 0.98 1.06 1.14 1.14 1.08 1.02 0.97 0.99 1.03 1.02 0.95 0.89 0.87 0.82 0.75 0.68 0.65 0.61 0.58 0.55 0.48
0.65 0.43 0.40 0.41 0.55 0.62 0.46 0.49 0.17 0.11 0.11 0.11 0.12 0.13 0.14 0.16 0.18 0.19 0.22 0.32 0.42 0.45 0.55 0.62 0.71 0.78 0.79 0.87 0.97 0.96 0.94 0.93 0.85 0.87 0.88 0.93 0.96 0.97 0.95 0.92 0.89 0.83 0.78 0.70 0.63 0.62 0.62 0.64 0.63
0.48 0.39 0.45 0.52 0.65 0.71 0.48 0.50 0.20 0.10 0.15 0.16 0.16 0.15 0.15 0.16 0.16 0.16 0.19 0.27 0.38 0.46 0.56 0.66 0.68 0.81 0.87 0.87 0.95 0.96 0.90 0.85 0.86 0.91 0.96 0.96 0.95 0.96 0.91 0.88 0.86 0.84 0.79 0.75 0.70 0.64 0.65 0.67 0.68
0.48 0.62 0.80 0.85 1.11 1.22 0.47 0.39 0.24 0.15 0.19 0.17 0.14 0.16 0.19 0.19 0.18 0.19 0.19 0.25 0.34 0.42 0.52 0.59 0.67 0.76 0.88 0.89 0.93 0.93 0.89 0.85 0.88 0.92 0.99 1.00 0.99 1.01 0.97 0.87 0.86 0.80 0.73 0.72 0.74 0.71 0.66 0.65 0.65
0.83 1.24 1.94 2.14 2.03 1.14 0.25 0.26 0.26 0.15 0.13 0.14 0.12 0.13 0.20 0.24 0.24 0.23 0.21 0.24 0.30 0.38 0.47 0.55 0.61 0.74 0.83 0.85 0.87 0.88 0.86 0.84 0.85 0.89 0.94 0.97 0.98 1.01 1.01 0.94 0.88 0.83 0.76 0.67 0.70 0.74 0.73 0.70 0.71
0.90 1.03 1.38 1.44 1.03 0.42 0.17 0.20 0.18 0.11 0.07 0.07 0.07 0.09 0.12 0.17 0.25 0.26 0.22 0.25 0.29 0.36 0.42 0.52 0.57 0.67 0.79 0.79 0.80 0.84 0.84 0.82 0.82 0.85 0.88 0.92 0.88 0.89 0.95 1.00 0.99 0.89 0.82 0.76 0.72 0.73 0.72 0.74 0.76
0.83 0.83 0.69 0.88 0.63 0.37 0.25 0.17 0.13 0.09 0.07 0.06 0.08 0.09 0.11 0.12 0.18 0.26 0.23 0.27 0.31 0.38 0.40 0.48 0.57 0.65 0.78 0.82 0.80 0.82 0.84 0.84 0.80 0.83 0.86 0.92 0.90 0.83 0.87 0.95 1.03 1.03 0.97 0.89 0.84 0.81 0.75 0.75 0.78
0.74 0.79 0.93 1.27 1.03 0.57 0.28 0.18 0.20 0.15 0.10 0.08 0.10 0.12 0.12 0.12 0.16 0.21 0.21 0.26 0.33 0.38 0.40 0.44 0.55 0.63 0.72 0.81 0.82 0.85 0.89 0.89 0.85 0.84 0.83 0.83 0.88 0.90 0.86 0.86 0.91 0.97 1.01 1.00 0.96 0.93 0.87 0.85 0.84
0.79 1.00 1.24 1.27 0.94 0.72 0.45 0.30 0.26 0.20 0.13 0.10 0.11 0.14 0.15 0.13 0.16 0.19 0.20 0.25 0.32 0.38 0.38 0.41 0.48 0.60 0.70 0.76 0.79 0.84 0.95 0.94 0.93 0.92 0.87 0.82 0.81 0.88 0.91 0.90 0.94 0.97 0.98 0.98 1.04 1.04 1.00 0.98 0.95
0.69 0.85 1.02 1.27 0.99 0.58 0.51 0.38 0.26 0.18 0.14 0.11 0.10 0.12 0.15 0.15 0.17 0.17 0.19 0.24 0.29 0.34 0.37 0.42 0.47 0.52 0.64 0.75 0.78 0.81 0.92 0.99 0.97 1.03 1.01 0.91 0.83 0.84 0.90 0.93 0.95 1.02 1.06 1.04 1.08 1.11 1.12 1.16 1.13